Tracking 25534 objects as of 29-Jan-2022
HD Live streaming from Space Station
objects crossing your sky now

THOR ABLESTAR DEB

Track THOR ABLESTAR DEB now!
10-day predictions


NORAD ID: 559
Int'l Code: 1961-015GR
Perigee: 694.0 km
Apogee: 801.0 km
Inclination: 66.6 °
Period: 99.6 minutes
Semi major axis: 7118 km
RCS: 0.0375 m2 (small)
Launch date: June 29, 1961
Source: United States (US)
Launch site: AIR FORCE EASTERN TEST RANGE (AFETR)

Note: This is SATELLITE DEBRIS
aabbcc
Your satellite tracking list
Your tracking list is empty




NASA's NSSDC Master Catalog

Two Line Element Set (TLE):
1   559U 61015GR  22029.02303388  .00001081  00000-0  32167-3 0  9996
2   559  66.6093 358.4148 0075168 255.1846 104.0923 14.45495937117203
Source of the keplerian elements: AFSPC